Location: Heidgraben
(53.7081°N, 9.6576°E)
Time: 01:35:38
(UTC+00:00)

NOSS 3-3 (A) - Visible Passes

Search period start: 24 October 2020 00:00
Search period end: 03 November 2020 00:00
Orbit: 822 x 1390 km, 63.4° (Epoch: 13 October)

Date Brightness Start Highest point End Pass type
(mag) Time Alt. Az. Time Alt. Az. Time Alt. Az.
24 Oct 5.9 00:39:20 28° ENE 00:39:20 28° ENE 00:43:17 10° E visible
24 Oct 4.4 02:26:51 75° NW 02:27:36 87° NE 02:35:51 10° SE visible
24 Oct 5.1 04:14:21 22° WNW 04:18:11 34° WSW 04:25:24 10° S visible
24 Oct 5.2 18:11:38 10° SSE 18:14:04 20° SE 18:14:04 20° SE visible
24 Oct 5.9 20:00:24 10° SW 20:01:36 17° SW 20:01:36 17° SW visible
24 Oct 6.7 23:56:59 13° ENE 23:56:59 13° ENE 23:57:49 10° E visible
25 Oct 5.0 01:44:31 53° E 01:44:31 53° E 01:50:48 10° ESE visible
25 Oct 4.7 03:32:02 42° W 03:33:36 47° WSW 03:41:25 10° SSE visible
25 Oct 6.0 05:20:09 10° W 05:23:08 13° WSW 05:26:13 10° SW visible
25 Oct 5.3 17:28:32 10° SE 17:31:48 17° ESE 17:31:48 17° ESE visible
25 Oct 4.7 19:15:46 10° SSW 19:19:18 38° SSW 19:19:18 38° SSW visible
26 Oct 6.0 01:02:21 25° E 01:02:21 25° E 01:05:34 10° ESE visible
26 Oct 4.5 02:49:53 59° SSW 02:49:53 59° SSW 02:57:04 10° SSE visible
26 Oct 5.6 04:37:25 18° W 04:38:53 19° WSW 04:44:17 10° SSW visible
26 Oct 4.1 18:31:26 10° SSW 18:36:53 48° SE 18:36:53 48° SE visible
26 Oct 5.6 20:21:50 10° WSW 20:24:23 26° WSW 20:24:23 26° WSW visible
27 Oct 5.4 02:07:52 36° SE 02:07:52 36° SE 02:12:24 10° SE visible
27 Oct 5.4 03:55:24 27° SW 03:55:24 27° SW 04:01:11 10° SSW visible
27 Oct 4.6 17:47:25 10° S 17:52:36 33° ESE 17:54:18 28° E visible
27 Oct 4.3 19:36:53 10° SW 19:41:47 60° WSW 19:41:47 60° WSW visible
27 Oct 6.5 21:28:50 10° W 21:29:16 12° W 21:29:16 12° W visible
28 Oct 6.4 01:25:57 17° SE 01:25:57 17° SE 01:27:29 10° SE visible
28 Oct 5.6 03:13:30 27° SSW 03:13:30 27° SSW 03:17:28 10° S visible
28 Oct 5.1 17:03:54 10° SSE 17:08:16 22° ESE 17:11:33 15° ENE visible
28 Oct 3.8 18:52:09 10° SW 18:58:07 83° SE 18:59:02 67° ENE visible
28 Oct 5.7 20:43:38 10° W 20:46:31 27° WNW 20:46:31 27° WNW visible
29 Oct 6.3 02:31:40 17° SSE 02:31:40 17° SSE 02:33:20 10° SSE visible
29 Oct 6.4 04:19:12 10° SW 04:19:12 10° SW 04:19:18 10° SW visible
29 Oct 4.0 18:07:37 10° SSW 18:13:26 60° SE 18:16:09 34° ENE visible
29 Oct 4.8 19:58:30 10° WSW 20:03:38 49° NW 20:03:38 49° NW visible
29 Oct 6.6 21:50:45 10° WNW 21:51:05 12° WNW 21:51:05 12° WNW visible
30 Oct 4.4 17:23:24 10° S 17:28:53 41° ESE 17:33:10 19° ENE visible
30 Oct 4.3 19:13:28 10° WSW 19:19:31 65° NW 19:20:38 56° NNE visible
30 Oct 6.0 21:05:34 10° WNW 21:08:05 23° WNW 21:08:05 23° WNW visible
31 Oct 4.9 16:39:34 10° S 16:44:28 28° ESE 16:49:53 10° ENE visible
31 Oct 4.0 18:28:35 10° SW 18:34:37 84° NW 18:37:32 37° NE visible
31 Oct 5.3 20:20:23 10° W 20:24:59 37° NW 20:24:59 37° NW visible
01 Nov 3.9 17:43:55 10° SW 17:49:50 73° SE 17:54:22 22° NE visible
01 Nov 4.8 19:35:12 10° W 19:41:14 47° NNW 19:41:48 46° N visible
01 Nov 6.3 21:27:27 10° WNW 21:29:15 19° NW 21:29:15 19° NW visible
02 Nov 4.2 16:59:31 10° SSW 17:05:12 52° SE 17:11:08 12° NE visible
02 Nov 4.5 18:50:05 10° WSW 18:56:09 57° NNW 18:58:34 38° NNE visible
02 Nov 5.7 20:42:19 10° WNW 20:46:01 30° NW 20:46:01 30° NW visible
